Location: Bujny Szlacheckie
(51.4660°N, 19.2833°E)
Time: 23:11:43
(UTC+00:00)

Daily predictions for brighter satellites

Satellite Brightness Start Highest point End
(mag) Time Altitude Azimuth Time Altitude Azimuth Time Altitude Azimuth
Cosmos 1302 Rocket 4.2 19:40:24 10° NNW 19:45:40 80° WSW 19:50:56 10° SSE
Cosmos 2173 Rocket 4.1 19:39:41 10° N 19:45:53 66° ENE 19:51:57 10° SSE
Cosmos 1758 3.3 19:43:34 10° N 19:47:19 62° ENE 19:50:59 10° SSE
Cosmos 2084 Rocket 3.5 19:44:26 10° NW 19:48:37 71° NE 19:52:44 10° SE
Cosmos 1992 Rocket 4.1 19:47:29 10° NNW 19:52:42 70° ENE 19:57:51 10° SSE
Cosmos 1933 Rocket 4.4 19:49:11 10° N 19:53:19 37° ENE 19:57:22 10° SE
ATLAS CENTAUR R/B 1.3 19:49:55 10° NW 19:53:45 70° SW 19:57:29 10° SSE
SL-16 R/B 2.6 19:48:14 10° NNW 19:53:50 58° NE 19:59:24 10° SE
Helios 1A 3.2 19:49:57 10° N 19:53:54 70° WNW 19:57:49 10° SSW
Cosmos 1727 Rocket 4.0 19:49:08 10° S 19:55:17 81° E 20:01:30 10° NNE
IRS-1C Rocket 4.2 19:55:18 10° SSE 20:00:33 82° WSW 20:05:51 10° NNW
COSMOS 2455 3.3 19:55:01 10° NW 20:00:57 59° WSW 20:06:50 10° SSE
Terra 2.8 19:56:35 10° S 20:01:03 44° W 20:05:35 10° NNW
Cosmos 2227 Rocket 2.4 19:55:48 10° S 20:01:15 53° ESE 20:06:45 10° NE
Cosmos 2100 Rocket 4.0 19:55:20 10° N 20:01:33 86° E 20:07:42 10° S
Cosmos 1515 Rocket 3.9 19:58:51 10° SSE 20:03:06 48° E 20:07:22 10° NNE
PSLV R/B 3.4 20:00:22 10° SSE 20:03:39 74° ENE 20:06:57 10° N
USA 276 3.8 20:05:45 10° SW 20:06:01 10° SSW 20:06:17 10° SSW
Cosmos 2263 Rocket 3.0 20:01:15 10° SSE 20:06:09 31° ESE 20:11:07 10° NE
RESURS DK-1 3.0 20:05:17 10° S 20:08:56 35° ESE 20:12:36 10° NE
Cosmos 1725 Rocket 4.2 20:04:37 10° N 20:10:54 66° ENE 20:17:10 10° SSE
Okean O Rocket 3.7 20:10:23 10° SW 20:13:46 22° W 20:17:11 10° NW
Spot 2 Rocket 4.2 20:09:18 10° S 20:14:13 51° W 20:19:12 10° NNW
Cosmos 1943 4.3 20:09:59 10° NNW 20:15:16 37° NE 20:20:31 10° ESE
Iridium 51 4.5 20:12:42 10° N 20:16:20 49° E 20:19:31 12° SSE
Cosmos 1437 Rocket 2.6 20:21:35 10° S 20:25:03 61° E 20:28:37 10° NNE
Cosmos 921 Rocket 3.2 20:21:16 10° SSW 20:25:31 76° WNW 20:29:54 10° NNE
Cosmos 2219 3.8 20:21:26 10° S 20:26:42 39° ESE 20:32:00 10° NE
Geosat 4.4 20:24:09 10° NE 20:28:55 43° ESE 20:33:40 10° S
COBE Rocket 4.4 20:26:31 10° NNE 20:31:26 46° E 20:35:51 12° S
SL-14 R/B 4.2 20:29:36 10° SSW 20:33:25 48° WNW 20:37:14 10° N
Cosmos 2123 Rocket 4.0 20:28:00 10° S 20:34:17 82° E 20:40:33 10° NNE
Cosmos 2082 4.4 20:31:12 10° S 20:36:16 35° ESE 20:41:25 10° NE
SL-8 R/B 4.1 20:36:27 10° W 20:41:01 46° SSW 20:45:09 12° SE
Cosmos 2237 Rocket 3.9 20:38:11 10° NW 20:42:41 25° WSW 20:47:09 10° SSW
USA 290 3.1 20:41:32 17° SSE 20:43:24 30° ESE 20:46:16 10° NE
NOSS 3-1 (C) 4.2 20:40:19 10° NW 20:47:02 67° NE 20:55:27 10° ESE
ARIANE 5 R/B 3.8 20:43:26 12° SE 20:47:02 34° ENE 20:51:04 10° N
Cosmos 1802 Rocket 4.4 20:41:09 10° NNW 20:47:32 67° W 20:53:51 10° S
Cosmos 2061 Rocket 4.0 20:42:54 10° N 20:49:15 80° E 20:54:39 14° SSE
SL-4 R/B 3.3 20:47:40 12° S 20:50:15 20° SE 20:53:17 10° E
Cosmos 1140 Rocket 4.1 20:46:57 14° SSE 20:50:56 39° ESE 20:55:41 10° NE
USA 305 2.2 20:49:33 10° WSW 20:53:20 70° SSE 20:56:27 10° ENE
Cosmos 1953 2.1 20:49:40 10° N 20:53:27 81° E 20:56:11 18° SSE
Lacrosse 4 Rocket 3.0 20:57:29 10° WNW 21:00:59 25° WSW 21:04:06 12° SSW
Meteor 2-21 Rocket 4.5 20:55:44 11° S 21:01:42 79° E 21:07:53 10° NNE
Cosmos 1703 4.1 21:01:19 19° SE 21:03:06 30° E 21:06:11 10° NNE
NOSS 3-4 (A) 4.2 20:59:12 10° WSW 21:04:32 52° NNW 21:10:35 10° NE
NOSS 3-4 (C) 4.2 20:59:18 10° WSW 21:04:38 52° NW 21:10:41 10° NE
DNEPR-1 R/B 4.0 21:00:45 10° SSW 21:06:37 70° SE 21:11:28 10° NE
Cosmos 1818 4.1 21:02:01 10° SW 21:07:26 63° NW 21:12:52 10° NE
Cosmos 1892 3.4 21:10:55 20° SE 21:12:01 25° E 21:14:35 10° NE
Cosmos 407 Rocket 4.2 21:10:51 18° SSE 21:13:57 34° ESE 21:18:33 10° NE
Cosmos 1844 Rocket 3.9 21:13:11 16° SE 21:16:07 25° ESE 21:20:36 10° NE
CZ-4C R/B 3.1 21:13:28 10° NNE 21:16:41 52° E 21:18:25 24° S
Cosmos 2297 Rocket 4.2 21:12:07 10° WSW 21:17:08 31° NW 21:22:09 10° NNE
USA 59 Rocket 1.4 21:14:17 10° NNW 21:17:11 28° NE 21:20:42 10° E
IRIDIUM 104 4.4 21:15:18 18° S 21:19:13 69° E 21:24:26 10° N
Cosmos 2228 Rocket 3.7 21:17:10 20° SSE 21:19:53 42° E 21:24:05 10° NNE
GP-B 3.6 21:15:56 10° N 21:20:15 56° W 21:23:59 13° SSW
ATLAS 3B R/B 4.4 21:13:44 10° NW 21:21:01 38° NNE 21:28:14 10° E
Cosmos 1269 Rocket 4.1 21:20:53 10° SSW 21:26:10 85° WNW 21:31:30 10° NNE
IRIDIUM 114 4.3 21:24:26 18° S 21:28:21 81° E 21:33:37 10° N
Cosmos 1707 Rocket 3.7 21:28:01 21° SSE 21:30:41 58° E 21:34:56 10° NNE
Cosmos 540 Rocket 3.7 21:25:57 10° NNW 21:31:03 63° ENE 21:34:50 18° SE
Landsat 5 4.1 21:27:43 10° NNE 21:31:47 40° E 21:34:00 22° SSE
NOSS 3-1 (A) 4.2 21:28:34 10° NW 21:35:21 67° NE 21:43:42 10° ESE
IRIDIUM 103 4.3 21:33:34 18° S 21:37:31 86° W 21:42:46 10° N
SL-16 R/B 3.5 21:32:48 10° NW 21:37:37 30° WSW 21:41:38 14° SSW
ALOS 2 3.0 21:37:03 20° SE 21:39:55 56° ENE 21:44:15 10° N
ATLAS 2AS CENTAUR R/B 4.2 21:37:43 15° SE 21:40:47 20° ESE 21:45:32 10° ENE
Cosmos 468 Rocket 4.4 21:36:25 10° NNW 21:41:32 56° ENE 21:45:25 17° SE
Cosmos 1464 Rocket 4.2 21:35:32 10° N 21:41:50 67° ENE 21:46:20 20° SSE
Cosmos 1733 Rocket 3.1 21:37:55 10° NNW 21:42:19 72° W 21:45:01 22° S
Cosmos 2344 4.0 21:34:42 10° NW 21:42:39 78° SW 21:52:06 14° SSE
Cosmos 2227 Rocket 3.8 21:40:21 10° WSW 21:45:32 36° NW 21:50:45 10° NNE
RESURS DK-1 4.1 21:42:47 10° WSW 21:46:25 32° NW 21:50:05 10° NNE
Cosmos 2034 Rocket 4.5 21:42:32 10° N 21:48:38 53° ENE 21:53:15 18° SE
Cosmos 2263 Rocket 2.9 21:44:15 10° SW 21:49:49 55° NW 21:55:26 10° NNE
CZ-2C R/B 3.7 21:48:14 10° NNE 21:52:47 87° WNW 21:56:00 20° SSW
Okean 2 3.9 21:50:02 16° SSW 21:52:57 50° WNW 21:56:46 10° N
Okean 3 4.0 21:50:58 16° SSW 21:54:05 52° WNW 21:58:06 10° N
Aureole 3 Rocket 2.3 21:52:25 10° NNW 21:55:32 81° W 21:57:14 29° S
ASTEX 1 3.6 21:53:50 10° N 21:58:47 68° W 22:02:22 18° SSW
Cosmos 1943 3.6 21:53:59 10° NW 21:59:30 52° WSW 22:03:04 21° S
SeaSat 1 2.9 21:57:55 14° SE 22:01:58 59° NE 22:06:48 10° NNW
Cosmos 1908 Rocket 3.8 21:58:07 10° N 22:02:28 62° ENE 22:05:01 24° SSE
NOSS 2-1 (D) 3.6 22:04:15 10° NW 22:07:34 59° NE 22:11:23 12° ESE
Cosmos 1763 Rocket 3.7 22:04:21 10° NNW 22:09:24 57° WSW 22:12:23 23° S
Cosmos 2219 4.2 22:05:15 10° SW 22:10:46 47° NW 22:16:21 10° NNE
Cosmos 1862 Rocket 4.0 22:11:29 18° SSW 22:14:35 56° WNW 22:18:57 10° N
Cosmos 1603 3.7 22:11:32 10° NW 22:17:07 68° WSW 22:20:41 23° SSE
Cosmos 1271 Rocket 2.6 22:16:29 31° S 22:18:02 64° E 22:21:38 10° NNE
Cosmos 2292 Rocket 4.5 22:18:13 14° WSW 22:20:02 24° WNW 22:22:28 10° NNW
USA 305 3.0 22:18:40 10° W 22:22:01 47° N 22:24:33 10° ENE
Okean 1-7 3.1 22:19:41 23° SSW 22:22:10 66° WNW 22:26:18 10° N
ARIANE 5 R/B 3.7 22:20:49 19° SSW 22:23:21 34° W 22:27:26 10° NNW
Cosmos 546 4.4 22:23:17 10° W 22:27:06 79° S 22:30:56 10° E
SL-4 R/B 1.9 22:23:43 10° WSW 22:27:46 61° SSE 22:31:41 10° E
NOSS 2-1 (C) 3.1 22:32:18 10° NW 22:35:43 86° SW 22:38:47 19° SE
PSLV R/B 3.5 22:31:39 10° NNE 22:35:58 88° ESE 22:38:27 25° SSW
CZ-2C R/B 4.0 22:33:27 10° SE 22:38:06 33° ENE 22:42:51 10° N
Cosmos 2227 4.3 22:33:33 15° SW 22:38:17 76° WNW 22:43:56 10° NNE
NOSS 2-1 (E) 3.2 22:35:51 10° NW 22:39:18 89° SW 22:42:36 17° SE
SJ 16-02 2.1 22:38:57 25° SSE 22:40:55 39° ESE 22:44:57 10° NE
Cosmos 1300 Rocket 3.6 22:36:43 10° N 22:41:10 81° E 22:43:39 26° SSE
PSLV R/B 3.8 22:40:14 10° NNE 22:44:08 69° ESE 22:46:02 29° S
Cosmos 1892 4.4 22:43:00 12° WSW 22:44:50 19° WNW 22:47:04 10° NNW
Cosmos 676 Rocket 4.1 22:44:37 24° S 22:47:44 63° ESE 22:52:56 10° NNE
Cosmos 407 Rocket 4.5 22:50:57 10° SW 22:55:48 42° NW 23:00:39 10° NNE
USA 307 2.7 22:54:11 28° SSW 22:55:54 51° SSE 22:59:47 10° ENE
Cosmos 1844 Rocket 2.9 22:54:47 15° SW 22:59:30 69° WNW 23:05:11 10° NNE
USA 234 3.7 22:53:38 10° ENE 22:59:47 42° SE 23:03:50 21° SSW
Cosmos 1782 Rocket 3.7 22:57:08 10° NNW 23:01:32 67° W 23:03:54 26° S
Cosmos 1703 Rocket 3.9 22:59:24 23° SSW 23:01:56 55° WNW 23:06:12 10° N
Cosmos 2251 Rocket 4.1 22:59:04 14° SW 23:03:30 54° WNW 23:08:47 10° NNE
Cosmos 1844 3.8 22:59:50 16° SW 23:04:18 71° WNW 23:09:52 10° NNE
USA 59 Rocket 0.2 23:02:47 10° NW 23:06:14 46° SW 23:08:26 25° S
MINOTAUR IV R/B 4.5 23:06:45 25° SSW 23:09:16 81° ESE 23:13:41 10° NNE
Cosmos 1954 Rocket 4.2 23:07:47 19° SW 23:11:31 71° WNW 23:16:43 10° NNE
ATLAS 3B R/B 3.2 23:05:03 10° NW 23:13:00 76° NE 23:20:41 10° SE
Cosmos 1340 Rocket 4.3 23:10:32 10° N 23:14:00 30° ENE 23:17:17 11° SE
Tsikada Rocket 4.1 23:12:12 21° SSW 23:16:32 73° WNW 23:22:50 10° N
ALOS 2 4.4 23:14:27 14° SW 23:16:37 20° W 23:19:49 10° NW
Meteor 1-24 Rocket 4.0 23:13:40 20° SSW 23:17:55 67° WNW 23:23:48 10° N
Cosmos 1606 2.1 23:19:15 10° NNW 23:22:18 66° W 23:23:21 36° SSW
Cosmos 841 Rocket 3.9 23:19:33 10° NW 23:24:34 47° WSW 23:27:33 23° SSW
Cosmos 304 Rocket 4.2 23:22:36 23° S 23:25:18 50° ESE 23:29:55 10° NNE
Cosmos 2279 Rocket 4.0 23:19:45 10° N 23:25:59 85° W 23:30:32 19° S
NOSS 3-1 (A) 4.4 23:19:26 10° NW 23:26:15 45° WSW 23:32:25 17° S
ATLAS 2AS CENTAUR R/B 2.8 23:25:05 18° SSW 23:30:41 75° SE 23:37:37 10° NE
BREEZE-M DEB (TANK) 3.4 23:28:11 18° SW 23:31:03 32° SSE 23:33:33 10° E
Meteor 2-5 Rocket 4.2 23:27:46 18° SSW 23:32:05 57° WNW 23:37:58 10° N
H-2A R/B 2.1 23:31:18 24° SSE 23:33:26 87° ENE 23:37:05 10° NNW
Cosmos 2242 Rocket 3.6 23:31:50 24° S 23:34:31 89° E 23:38:59 10° N
Cosmos 1850 Rocket 4.1 23:32:32 22° S 23:35:49 64° ESE 23:40:56 10° NNE
Cosmos 1814 Rocket 4.3 23:30:28 10° NNW 23:35:49 72° ENE 23:41:09 10° SSE
SL-24 R/B - RUBIN 2 3.7 23:31:24 10° NW 23:36:30 88° NE 23:41:03 10° SE
IDEFIX/ARIANE 42P 4.1 23:32:44 10° NE 23:37:12 27° E 23:41:28 11° SSE
H-2A R/B 4.3 23:35:14 10° ENE 23:37:16 13° E 23:39:16 10° ESE
Cosmos 1833 Rocket 2.6 23:33:32 10° NNW 23:39:11 79° WSW 23:44:08 14° SSE
SeaSat 1 3.6 23:37:33 20° SSW 23:39:39 27° WSW 23:43:48 10° NW
Landsat 4 2.9 23:40:02 32° S 23:41:12 77° WSW 23:44:07 10° NNW
Cosmos 1869 3.6 23:38:01 10° N 23:41:42 55° ENE 23:44:22 17° SSE
Cosmos 2180 Rocket 4.5 23:35:44 10° N 23:41:57 88° W 23:46:50 17° S
Spot 2 4.3 23:44:35 15° SSE 23:48:29 82° ENE 23:53:04 10° NNW
USA 305 2.6 23:48:03 10° WNW 23:50:49 43° N 23:52:41 10° E
CZ-2C R/B 3.2 23:48:17 10° NNE 23:53:49 80° ESE 23:57:35 19° S
